Weather Service Report


286 
ASUS42 KCAE 010910
RWRCAE
REGIONAL WEATHER ROUNDUP
NATIONAL WEATHER SERVICE COLUMBIA SC
500 AM EDT TUE SEP 01 2015

NOTE: "FAIR" INDICATES FEW OR NO CLOUDS BELOW 12,000 FEET WITH NO
SIGNIFICANT WEATHER AND/OR OBSTRUCTIONS TO VISIBILITY.

NOT ALL STATIONS ARE QUALITY CONTROLLED BY THE NATIONAL 
WEATHER SERVICE. USE DATA WITH CAUTION...ESPECIALLY 
DEWPOINT OBSERVATIONS.

SCZ001>056-GAZ040-063>065-077-011000-
...UPSTATE SOUTH CAROLINA...
  
CITY           SKY/WX    TMP DP  RH WIND       PRES   REMARKS
ANDERSON       CLEAR     67  64  90 CALM      30.10R                  
LIBERTY        SUNNY     63  62  97 CALM      30.10S                  
SPARTANBURG    CLEAR     68  64  88 CALM      30.09R                  
CLEMSON        PTCLDY    71  67  87 CALM      30.11S                  
GREENVILLE     CLEAR     70  65  84 CALM      30.10F                  
GREENWOOD      CLEAR     69  67  93 CALM      30.10S                  
GREER          CLEAR     68  66  93 CALM      30.08F                  
ROCK HILL      CLEAR     68  67  96 SW3       30.09S                  
CHESTER        SUNNY     70  70 100 CALM      30.09S                  
LAURENS        SUNNY     68  68 100 CALM      30.09S                  


...CENTRAL SOUTH CAROLINA...
  
CITY           SKY/WX    TMP DP  RH WIND       PRES   REMARKS
COLUMBIA APT   CLEAR     70  66  87 CALM      30.06F                  
COLUMBIA OWENS CLEAR     71  68  90 CALM      30.08S                  
DARLINGTON     CLEAR     68  64  88 CALM      30.08S                  
FLORENCE       CLEAR     69  68  96 CALM      30.07S                  
MCENTIRE ANGB  FOG       68  68 100 CALM      30.07S VSB 1/2          
ORANGEBURG     CLEAR     68  67  96 CALM      30.07F FOG              
SUMTER SHAW    CLEAR     70  68  94 E1        30.05S                  
NEWBERRY       SUNNY     66  64  94 CALM      30.11S                  
BARNWELL       FAIR      70  68  94 CALM      30.08S                  
MANNING        FAIR      66  66 100 CALM      30.06F                  
CAMDEN         FAIR      68  68 100 CALM      30.08S                  
LANCASTER      SUNNY     68  68 100 CALM      30.08S FOG              
WINNSBORO      SUNNY     70  70 100 W3        30.08S                  


...EASTERN AND COASTAL SOUTH CAROLINA...
  
CITY           SKY/WX    TMP DP  RH WIND       PRES   REMARKS
MYRTLE BEACH   CLEAR     72  66  83 CALM      30.08R                  
N MYRTLE BCH   PTCLDY    72  71  97 NW3       30.06R                  
CONWAY         FAIR      66 N/A N/A CALM      30.07R HAZE             
MARION         FAIR      68  68 100 CALM      30.07R                  
HARTSVILLE     FAIR      68  66  94 CALM      30.07S                  
FLORENCE       CLEAR     69  68  96 CALM      30.07S                  
DARLINGTON     CLEAR     68  64  88 CALM      30.08S                  
CHARLESTON APT PTCLDY    72  70  93 N3        30.05F                  
MOUNT PLEASANT FAIR      73  72  94 CALM      30.06S FOG              
WALTERBORO       N/A     68  66  94 CALM      30.07F FOG              
BEAUFORT       CLEAR     73  71  93 CALM      30.06F                  


...EASTERN GEORGIA...
  
CITY           SKY/WX    TMP DP  RH WIND       PRES   REMARKS
AUGUSTA BUSH F CLEAR     66  66 100 CALM      30.07R                  
AUGUSTA DANIEL CLEAR     74  68  81 CALM      30.08F                  
THOMSON        CLEAR     67  67 100 CALM      30.13S                  
WASHINGTON     FAIR      70  70 100 W3        30.09S                  
SYLVANIA       SUNNY     68  68 100 CALM      30.08S                  
STATESBORO     PTCLDY    67  32  27 CALM      30.07S                  
SAVANNAH       CLEAR     73  71  93 N3        30.05F                  


...SOUTHERN NORTH CAROLINA...
  
CITY           SKY/WX    TMP DP  RH WIND       PRES   REMARKS
CHARLOTTE      CLEAR     68  67  96 CALM      30.09S                  
MONROE         CLEAR     68  66  93 CALM      30.08S                  
WADESBORO      FOG       67  65  96 CALM      30.08S VSB 3/4          
ROCKINGHAM     SUNNY     66  66  98 CALM      30.07S                  
RUTHERFORDTON  CLEAR     69  66  90 CALM      30.12S                  
ASHEVILLE      CLEAR     65  62  90 N3        30.18S                  

$$

Return to Home page


Western Regional Climate Center, wrcc@dri.edu